Content
SEND FEEDBACK

Daily
Averages
Monthly
Summary
United States of America

STANLEY, NORTH DAKOTA


Home > North America > United States > North Dakota
Elevation: 700 meters     Latitude: 48 21N     Longitude: 102 25W

WEATHER
 
SELECT A DAY
Number of Records: 85,539;   Date Range: 12/7/10 - 9/29/14
 
SHARE

PRINT THIS DATA

[ ← Previous Day ]
WEATHER ALMANAC - 14 MARCH, 2014
[ Next Day → ]
[ °F ]   °C
Weather ElementAverageHighLow
Temperature-0.3 °C3 °C (5:15 pm)-4 °C (9:15 pm)
Dewpoint-2.1 °C0 °C (12:35 am)-4 °C (9:15 pm)
Humidity89.1 %100 % (2:55 am)65 % (5:15 pm)
Barometer1009.1 hPa1011.9 hPa (10:55 pm)1005.8 hPa (12:35 am)
Wind Speed21.1 km/h31.5 km/h (12:35 am)
Wind Gust50.1 km/h (9:55 am)
Weather ElementAverage
Visibility16.1 km
Wind DirectionWSW (234.8 °)

Weather ElementTotal
Precipitation---
Heating Degree Days18.8 (Base 18.3)
Averaged from 71 records on 14 March, 2014
WEATHER CONDITIONS BREAKOUT
WIND DIRECTION BREAKOUT
WEATHER BY HOUR - 14 MARCH, 2014
[ °F ]   °C
Local TimeTemperatureDewpointHumidityBarometerVisibilityWind DirectionWind SpeedGust SpeedPrecipitationEventsConditions
12:35 AM1 °C0 °C93 %1005.8 hPa16.1 kmWNW (300°)31.5 km/h38.9 km/hOvercast
12:55 AM1 °C0 °C93 %1006.1 hPa16.1 kmWNW (300°)27.8 km/h40.7 km/hOvercast
1:15 AM1 °C0 °C93 %1006.1 hPa16.1 kmWNW (300°)25.9 km/h42.6 km/hOvercast
1:35 AM1 °C0 °C93 %1006.1 hPa16.1 kmWNW (300°)24.1 km/h37 km/hOvercast
1:55 AM1 °C0 °C93 %1006.1 hPa16.1 kmNW (310°)24.1 km/h38.9 km/hOvercast
2:15 AM1 °C0 °C93 %1006.4 hPa16.1 kmWNW (300°)24.1 km/h40.7 km/hOvercast
2:35 AM1 °C0 °C93 %1006.4 hPa16.1 kmWNW (300°)31.5 km/h42.6 km/hOvercast
2:55 AM0 °C0 °C100 %1006.8 hPa16.1 kmWNW (300°)27.8 km/h38.9 km/hOvercast
3:15 AM0 °C0 °C100 %1006.8 hPa16.1 kmWNW (300°)25.9 km/h40.7 km/hOvercast
3:35 AM0 °C0 °C100 %1006.8 hPa16.1 kmNW (310°)29.6 km/h42.6 km/hOvercast
3:55 AM0 °C0 °C100 %1006.8 hPa16.1 kmWNW (300°)27.8 km/h35.2 km/hOvercast
4:15 AM0 °C0 °C100 %1006.8 hPa16.1 kmWNW (300°)24.1 km/h37 km/hOvercast
4:35 AM0 °C0 °C100 %1006.8 hPa16.1 kmWNW (300°)27.8 km/h38.9 km/hOvercast
4:55 AM0 °C0 °C100 %1006.8 hPa16.1 kmWNW (290°)24.1 km/h33.3 km/hOvercast
5:15 AM0 °C-1 °C93 %1007.1 hPa16.1 kmWNW (300°)24.1 km/h37 km/hOvercast
5:35 AM0 °C-1 °C93 %1007.1 hPa16.1 kmWNW (300°)29.6 km/h44.4 km/hOvercast
5:55 AM0 °C-1 °C93 %1007.5 hPa16.1 kmWNW (290°)29.6 km/h42.6 km/hOvercast
6:15 AM0 °C-1 °C93 %1007.8 hPa16.1 kmWNW (300°)27.8 km/h38.9 km/hOvercast
6:35 AM0 °C-2 °C87 %1008.1 hPa16.1 kmWNW (300°)24.1 km/h38.9 km/hOvercast
6:55 AM0 °C-2 °C87 %1008.1 hPa16.1 kmWNW (300°)31.5 km/h40.7 km/hOvercast
7:15 AM0 °C-2 °C87 %1008.1 hPa16.1 kmNW (310°)31.5 km/h44.4 km/hOvercast
7:35 AM-1 °C-2 °C93 %1008.1 hPa16.1 kmWNW (300°)22.2 km/h31.5 km/hScattered Clouds
7:55 AM-2 °C-2 °C100 %1008.5 hPa16.1 kmWNW (300°)20.4 km/hScattered Clouds
8:15 AM-2 °C-2 °C100 %1008.8 hPa16.1 kmWNW (300°)22.2 km/h31.5 km/hOvercast
8:35 AM-2 °C-2 °C100 %1008.8 hPa16.1 kmWNW (290°)25.9 km/hOvercast
8:55 AM-2 °C-2 °C100 %1009.1 hPa16.1 kmNW (310°)29.6 km/h38.9 km/hOvercast
9:15 AM-1 °C-2 °C93 %1009.1 hPa16.1 kmNW (310°)24.1 km/h33.3 km/hOvercast
9:35 AM0 °C-2 °C87 %1009.1 hPa16.1 kmNW (310°)27.8 km/h35.2 km/hMostly Cloudy
9:55 AM0 °C-2 °C87 %1009.1 hPa16.1 kmNW (310°)31.5 km/h50.1 km/hMostly Cloudy
10:15 AM0 °C-2 °C87 %1009.1 hPa16.1 kmNW (310°)29.6 km/h37 km/hMostly Cloudy
10:35 AM0 °C-2 °C87 %1009.1 hPa16.1 kmNW (320°)24.1 km/h35.2 km/hOvercast
10:55 AM0 °C-2 °C87 %1009.1 hPa16.1 kmNNW (340°)27.8 km/h37 km/hMostly Cloudy
11:15 AM0 °C-3 °C80 %1009.8 hPa16.1 kmNNW (330°)22.2 km/h40.7 km/hMostly Cloudy
11:35 AM0 °C-3 °C80 %1009.8 hPa16.1 kmNW (320°)25.9 km/h37 km/hOvercast
11:55 AM0 °C-3 °C80 %1010.2 hPa16.1 kmNNW (330°)22.2 km/h35.2 km/hOvercast
12:15 PM0 °C-3 °C80 %1010.2 hPa16.1 kmNNW (330°)18.5 km/h33.3 km/hOvercast
12:35 PM1 °C-3 °C75 %1010.2 hPa16.1 kmNW (320°)16.7 km/h31.5 km/hOvercast
12:55 PM1 °C-3 °C75 %1010.2 hPa16.1 kmNNW (340°)20.4 km/hOvercast
1:15 PM1 °C-3 °C75 %1010.2 hPa16.1 kmNW (310°)18.5 km/hOvercast
1:35 PM1 °C-3 °C75 %1010.2 hPa16.1 kmNW (310°)20.4 km/h25.9 km/hOvercast
1:55 PM2 °C-2 °C75 %1010.2 hPa16.1 kmNW (310°)18.5 km/hOvercast
2:15 PM2 °C-2 °C75 %1010.2 hPa16.1 kmNNW (330°)16.7 km/h25.9 km/hOvercast
2:35 PM2 °C-2 °C75 %1010.2 hPa16.1 kmNNW (330°)14.8 km/hMostly Cloudy
2:55 PM2 °C-3 °C70 %1009.8 hPa16.1 kmNW (320°)14.8 km/hMostly Cloudy
3:15 PM2 °C-3 °C70 %1009.8 hPa16.1 kmNW (310°)13 km/hMostly Cloudy
3:35 PM2 °C-3 °C70 %1009.8 hPa16.1 kmNorth (350°)13 km/hMostly Cloudy
3:55 PM2 °C-3 °C70 %1009.8 hPa16.1 kmWNW (300°)11.1 km/hPartly Cloudy
4:15 PM2 °C-2 °C75 %1009.8 hPa16.1 kmNNE (20°)11.1 km/hMostly Cloudy
4:35 PM2 °C-3 °C70 %1010.2 hPa16.1 kmNorth (10°)7.4 km/hMostly Cloudy
4:55 PM2 °C-2 °C75 %1010.2 hPa16.1 kmNNE (30°)9.3 km/hMostly Cloudy
5:15 PM3 °C-3 °C65 %1010.2 hPa16.1 kmNorth (360°)9.3 km/hMostly Cloudy
5:35 PM3 °C-1 °C75 %1010.2 hPa16.1 kmENE (60°)13 km/hMostly Cloudy
5:55 PM1 °C-2 °C81 %1010.2 hPa16.1 kmENE (70°)14.8 km/hMostly Cloudy
6:15 PM0 °C-2 °C87 %1010.5 hPa16.1 kmEast (90°)14.8 km/hMostly Cloudy
6:35 PM0 °C-2 °C87 %1010.8 hPa16.1 kmENE (70°)13 km/hMostly Cloudy
6:55 PM0 °C-2 °C87 %1010.8 hPa16.1 kmENE (70°)14.8 km/hPartly Cloudy
7:15 PM-1 °C-2 °C93 %1010.8 hPa16.1 kmEast (90°)16.7 km/hPartly Cloudy
7:35 PM-2 °C-2 °C100 %1011.2 hPa16.1 kmEast (80°)18.5 km/hMostly Cloudy
7:55 PM-2 °C-2 °C100 %1011.2 hPa16.1 kmEast (90°)18.5 km/hMostly Cloudy
8:15 PM-3 °C-3 °C100 %1011.5 hPa16.1 kmEast (100°)18.5 km/hMostly Cloudy
8:35 PM-3 °C-3 °C100 %1011.5 hPa16.1 kmEast (80°)16.7 km/hOvercast
8:55 PM-3 °C-3 °C100 %1011.5 hPa16.1 kmEast (80°)14.8 km/h25.9 km/hOvercast
9:15 PM-4 °C-4 °C100 %1011.5 hPa16.1 kmEast (90°)16.7 km/hOvercast
9:35 PM-4 °C-4 °C100 %1011.5 hPa16.1 kmEast (80°)16.7 km/hOvercast
9:55 PM-4 °C-4 °C100 %1011.5 hPa16.1 kmEast (90°)16.7 km/hOvercast
10:15 PM-4 °C-4 °C100 %1011.5 hPa16.1 kmEast (100°)18.5 km/hOvercast
10:35 PM-4 °C-4 °C100 %1011.5 hPa16.1 kmEast (90°)16.7 km/hOvercast
10:55 PM-4 °C-4 °C100 %1011.9 hPa16.1 kmESE (110°)20.4 km/hOvercast
11:15 PM-4 °C-4 °C100 %1011.9 hPa16.1 kmEast (90°)13 km/hOvercast
11:35 PM-4 °C-4 °C100 %1011.9 hPa16.1 kmEast (80°)20.4 km/h25.9 km/hOvercast
11:55 PM-4 °C-4 °C100 %1011.9 hPa16.1 kmEast (90°)18.5 km/hOvercast
Hourly data recorded from K08D, located 0 kilometers away from Stanley, North Dakota







STORIES FROM OUR PARTNERS